sat.trackr.live / text

‹ back to catalog

STARLINK-34343

NORAD 64157 · 2025-112M

PAYLOAD ACTIVE UNKNOWN

§ Identity

Operator
Country
US
Launch date
2025-05-27
Launch site
AFWTR
Launch vehicle
Mass (kg)
RCS (m²)

External: N2YO · Heavens-Above · Gunter

§ Orbital elements

Epoch: 2026-09-21T01:54:07.937856Z

Period
95.50 min
Inclination
97.6044°
Eccentricity
0.0013337
Mean motion
15.07911337 rev/d
Perigee alt
533.4 km
Apogee alt
551.8 km
Semi-major
6,920.7 km
B*
4.4853e-4
RAAN
314.0549°
Arg perigee
311.0448°
Mean anomaly
48.9627°
Rev number
7,269

§ Raw data

STARLINK-343431 64157U 25112M   26264.07925854  .00006836  00000+0  44853-3 0  99932 64157  97.6044 314.0549 0013337 311.0448  48.9627 15.07911337 72696

JSON: /api/v1/satellites/64157 · /tle

For live sub-satellite position, see the globe view (requires WebGL).

§ Visibility from observer

Set your observer location to see the next 7 days of passes ≥ 10°. The values pass through the URL so the page stays shareable.

No JS? Fill the form by hand. The geolocation button needs JavaScript.